Simultaneous Nadir Overpasses (SNOs) Predictions

Prediction of SNOs between METOP-B and TERRA Satellite Orbit:

Table of predicted SNOs for the next 14.0 days since TLE Epoch: 8/17/2013
Index Date (METOP-B) Time (METOP-B) Lat,Lon (METOP-B) SZA (METOP-B ) Date (TERRA) Time (TERRA) Lat,Lon (TERRA) SZA (TERRA ) Distance(km) Time Diff (sec)
1 08/17/2013 19:20:19 81.30, -63.28 70.82 08/17/2013 19:21:09 81.30, -63.23 70.85 0.82 50
2 08/17/2013 20:10:59 -81.31, 104.63 109.10 08/17/2013 20:10:35 -81.31, 104.70 109.10 1.36 24
3 08/20/2013 14:54:42 81.30, 3.09 71.75 08/20/2013 14:55:25 81.29, 3.03 71.76 1.34 43
4 08/20/2013 15:45:22 -81.31, 171.03 108.17 08/20/2013 15:44:51 -81.31, 170.99 108.19 0.65 31
5 08/23/2013 10:29:04 81.30, 69.43 72.70 08/23/2013 10:29:39 81.30, 69.59 72.74 2.75 35
6 08/
